Weather History for Douglas Bisbee, AZ

Change the Weather History Date:

Saturday, April 13, 2013

  Actual Average Record
Temperature  
Mean Temperature 61 °F 60 °F  
Max Temperature 80 °F 79 °F 90 °F (1963)
Min Temperature 41 °F 42 °F 27 °F (1983)
Degree Days  
Heating Degree Days 4 5  
Month to date heating degree days 72 82  
Since 1 July heating degree days 2515 2443  
Cooling Degree Days 0 1  
Month to date cooling degree days 2 1  
Year to date cooling degree days 4 2  
Growing Degree Days 12 (Base 50)    
Moisture  
Dew Point 18 °F    
Average Humidity 23    
Maximum Humidity 36    
Minimum Humidity 9    
Precipitation  
Precipitation 0.00 in 0.00 in 0.27 in (1988)
Month to date precipitation 0.01 0.09  
Year to date precipitation 0.87 1.98  
Snow  
Snow 0.00 in - - ()
Month to date snowfall 0.0  
Snow Depth 0.00 in    
Sea Level Pressure  
Sea Level Pressure 29.74 in    
Wind  
Wind Speed 7 mph (NNW)    
Max Wind Speed 24 mph    
Max Gust Speed 32 mph    
Visibility 10 miles    
Events      
T = Trace of Precipitation, MM = Missing Value Source: NWS Daily Summary

Daily Weather History Graph

Daily Weather History Graph

Search for Another Location

Airport:

Trip Planner

Search our weather history database for the weather conditions in past years. The results will help you decide how hot, cold, wet, or windy it might be!

Date:

Astronomy

Apr. 13, 2013 Rise Set
Actual Time 5:52 AM MST 6:46 PM MST
Civil Twilight 5:27 AM MST 7:10 PM MST
Nautical Twilight 4:57 AM MST 7:40 PM MST
Astronomical Twilight 4:27 AM MST 8:10 PM MST
Moon 7:56 AM MST (4/13) 10:01 PM MST (4/13)
Length of Visible Light 13h 43m
Length of Day
12h 53m
Waxing Crescent, 11% of the Moon is Illuminated
Apr 13
Waxing Crescent
Apr 18
First Quarter
Apr 25
Full
May 2
Last Quarter
May 9
New

Hourly Weather History & Observations

Time (MST) Temp. Windchill Dew Point Humidity Pressure Visibility Wind Dir Wind Speed Gust Speed Precip Events Conditions
12:56 AM 52.0 °F - 19.0 °F 27% 29.78 in 10.0 mi North 6.9 mph - N/A   Partly Cloudy
1:56 AM 51.1 °F - 19.0 °F 28% 29.77 in 10.0 mi ENE 4.6 mph - N/A   Clear
2:56 AM 48.0 °F - 18.0 °F 30% 29.77 in 10.0 mi NE 4.6 mph - N/A   Clear
3:56 AM 48.9 °F - 19.9 °F 32% 29.76 in 10.0 mi NNW 3.5 mph - N/A   Clear
4:56 AM 44.1 °F 40.8 °F 17.1 °F 34% 29.79 in 10.0 mi NE 5.8 mph - N/A   Clear
5:56 AM 43.0 °F 40.3 °F 17.1 °F 35% 29.80 in 10.0 mi East 4.6 mph - N/A   Clear
6:56 AM 50.0 °F - 19.0 °F 29% 29.80 in 10.0 mi Calm Calm - N/A   Clear
7:56 AM 55.0 °F - 19.9 °F 25% 29.81 in 10.0 mi Calm Calm - N/A   Clear
8:56 AM 63.0 °F - 21.0 °F 20% 29.81 in 10.0 mi Variable 3.5 mph - N/A   Clear
9:56 AM 69.1 °F - 21.0 °F 16% 29.79 in 10.0 mi Variable 5.8 mph - N/A   Clear
10:56 AM 73.0 °F - 21.0 °F 14% 29.77 in 10.0 mi WNW 9.2 mph - N/A   Clear
11:56 AM 75.0 °F - 19.9 °F 13% 29.75 in 10.0 mi WNW 6.9 mph - N/A   Clear
12:56 PM 77.0 °F - 19.0 °F 11% 29.73 in 10.0 mi NNW 9.2 mph - N/A   Clear
1:56 PM 78.1 °F - 18.0 °F 10% 29.70 in 10.0 mi NNW 12.7 mph 17.3 mph N/A   Clear
2:56 PM 78.1 °F - 17.1 °F 10% 29.68 in 10.0 mi Variable 6.9 mph 18.4 mph N/A   Clear
3:56 PM 80.1 °F - 18.0 °F 10% 29.66 in 10.0 mi WNW 10.4 mph 18.4 mph N/A   Clear
4:56 PM 79.0 °F - 18.0 °F 10% 29.67 in 10.0 mi WNW 6.9 mph 18.4 mph N/A   Clear
5:56 PM 77.0 °F - 19.0 °F 11% 29.68 in 10.0 mi West 12.7 mph - N/A   Clear
6:56 PM 72.0 °F - 17.1 °F 12% 29.68 in 10.0 mi West 9.2 mph - N/A   Clear
7:56 PM 66.9 °F - 19.9 °F 17% 29.71 in 10.0 mi WNW 8.1 mph - N/A   Clear
8:56 PM 63.0 °F - 18.0 °F 18% 29.72 in 10.0 mi North 5.8 mph - N/A   Clear
9:56 PM 59.0 °F - 16.0 °F 19% 29.73 in 10.0 mi NNE 5.8 mph - N/A   Clear
10:56 PM 54.0 °F - 15.1 °F 22% 29.74 in 10.0 mi NE 5.8 mph - N/A   Clear
11:56 PM 52.0 °F - 16.0 °F 24% 29.74 in 10.0 mi NE 8.1 mph - N/A   Clear